Location: Unspecified
(0.0000°N, 0.0000°E)
Time: 15:01:43
(UTC+00:00)

Courier 1B - Pass Details

Date: 13 February 2026
Orbit: 962 x 1208 km, 28.3° (Epoch: 16 March)

Event Time Altitude Azimuth Distance (km) Brightness Sun altitude
Rises 19:27:18 0° 269° (W) 3,879 12.2 -17.8°
Reaches altitude 10° 19:30:32 10° 281° (WNW) 2,964 11.0 -18.6°
Maximum altitude 19:36:22 25° 334° (NNW) 2,108 9.3 -20.0°
Enters shadow 19:41:24 13° 22° (NNE) 2,822 9.6 -21.2°
